When you browse on this site, cookies collect data to enhance your experience and personalize the content and advertising you see.
Visit our Privacy Policy to learn more. By continuing to use the site, you agree to this use of cookies and data.
  • In Spain
  • List of Countries
  • For 7 days
  • Water Temperature
  • Weather Map
  • Weather Widgets
  • user-avatar
    Login

    Hourly Weather Lloret de Mar

    Today, 20 February, Thursday

    Time Temperature Precipitation Wind Pressure Humidity
    00:00 +8°C° 0 mm 2 mps 768 mmHg 83%
    01:00 +8°C° 0 mm 2 mps 767 mmHg 82%
    02:00 +7°C° 0 mm 2 mps 767 mmHg 81%
    03:00 +7°C° 0 mm 2 mps 767 mmHg 80%
    04:00 +7°C° 0 mm 2 mps 766 mmHg 79%
    05:00 +7°C° 0 mm 2 mps 766 mmHg 77%
    06:00 +7°C° 0 mm 2 mps 766 mmHg 76%
    07:00 +8°C° 0 mm 2 mps 766 mmHg 69%
    08:00 +10°C° 0 mm 2 mps 766 mmHg 62%
    09:00 +13°C° 0 mm 2 mps 766 mmHg 55%
    10:00 +15°C° 0 mm 2 mps 766 mmHg 51%
    11:00 +17°C° 0 mm 3 mps 766 mmHg 47%
    12:00 +18°C° 0 mm 3 mps 766 mmHg 44%
    13:00 +18°C° 0 mm 4 mps 765 mmHg 47%
    14:00 +18°C° 0 mm 4 mps 765 mmHg 49%
    15:00 +18°C° 0 mm 4 mps 765 mmHg 52%
    16:00 +16°C° 0 mm 3 mps 765 mmHg 64%
    17:00 +13°C° 0 mm 3 mps 766 mmHg 75%
    18:00 +10°C° 0 mm 2 mps 766 mmHg 86%
    19:00 +10°C° 0 mm 2 mps 766 mmHg 85%
    20:00 +10°C° 0 mm 2 mps 767 mmHg 84%
    21:00 +9°C° 0 mm 2 mps 767 mmHg 83%
    22:00 +9°C° 0 mm 2 mps 767 mmHg 83%
    23:00 +9°C° 0 mm 2 mps 768 mmHg 83%

    Tomorrow, 21 February, Friday

    Time Temperature Precipitation Wind Pressure Humidity
    00:00 +9°C° 0 mm 2 mps 768 mmHg 82%
    01:00 +9°C° 0 mm 2 mps 768 mmHg 82%
    02:00 +9°C° 0 mm 2 mps 768 mmHg 82%
    03:00 +8°C° 0 mm 2 mps 768 mmHg 83%
    04:00 +8°C° 0 mm 2 mps 768 mmHg 82%
    05:00 +8°C° 0 mm 2 mps 768 mmHg 81%
    06:00 +8°C° 0 mm 2 mps 769 mmHg 80%
    13:00 +19°C° 0 mm 2 mps 769 mmHg 47%
    14:00 +19°C° 0 mm 3 mps 768 mmHg 49%
    15:00 +18°C° 0 mm 3 mps 768 mmHg 50%
    16:00 +16°C° 0 mm 3 mps 768 mmHg 59%
    17:00 +13°C° 0 mm 3 mps 768 mmHg 69%
    18:00 +11°C° 0 mm 3 mps 768 mmHg 78%
    19:00 +11°C° 0 mm 3 mps 769 mmHg 78%
    20:00 +12°C° 0 mm 2 mps 769 mmHg 78%
    21:00 +10°C° 0 mm 2 mps 769 mmHg 78%
    22:00 +10°C° 0 mm 2 mps 769 mmHg 79%
    23:00 +10°C° 0 mm 2 mps 770 mmHg 79%

    Day after tomorrow, 22 February, Saturday

    Time Temperature Precipitation Wind Pressure Humidity
    00:00 +10°C° 0 mm 2 mps 770 mmHg 80%
    01:00 +9°C° 0 mm 2 mps 770 mmHg 81%
    02:00 +9°C° 0 mm 2 mps 770 mmHg 83%
    03:00 +9°C° 0 mm 2 mps 769 mmHg 84%
    04:00 +9°C° 0 mm 2 mps 770 mmHg 85%
    05:00 +8°C° 0 mm 2 mps 770 mmHg 86%
    06:00 +8°C° 0 mm 2 mps 770 mmHg 86%
    07:00 +10°C° 0 mm 2 mps 770 mmHg 81%
    08:00 +13°C° 0 mm 1 mps 771 mmHg 75%
    09:00 +15°C° 0 mm 1 mps 771 mmHg 70%
    10:00 +16°C° 0 mm 1 mps 771 mmHg 67%
    11:00 +17°C° 0 mm 2 mps 771 mmHg 63%
    12:00 +18°C° 0 mm 2 mps 772 mmHg 60%
    13:00 +18°C° 0 mm 2 mps 771 mmHg 63%
    14:00 +17°C° 0 mm 2 mps 771 mmHg 65%
    15:00 +17°C° 0 mm 2 mps 771 mmHg 67%
    16:00 +15°C° 0 mm 2 mps 771 mmHg 75%
    17:00 +13°C° 0 mm 1 mps 771 mmHg 82%
    18:00 +11°C° 0 mm 1 mps 771 mmHg 90%
    19:00 +11°C° 0 mm 1 mps 771 mmHg 91%
    20:00 +11°C° 0 mm 1 mps 772 mmHg 91%
    21:00 +10°C° 0 mm 0 mps 772 mmHg 91%
    22:00 +9°C° 0 mm 0 mps 772 mmHg 91%
    23:00 +10°C° 0 mm 1 mps 772 mmHg 91%

    23 February, Sunday

    Time Temperature Precipitation Wind Pressure Humidity
    00:00 +10°C° 0 mm 1 mps 772 mmHg 91%
    01:00 +10°C° 0 mm 1 mps 772 mmHg 91%
    02:00 +10°C° 0 mm 1 mps 771 mmHg 90%
    03:00 +10°C° 0 mm 1 mps 771 mmHg 90%
    04:00 +10°C° 0 mm 1 mps 771 mmHg 89%
    05:00 +10°C° 0 mm 1 mps 771 mmHg 88%
    06:00 +10°C° 0 mm 1 mps 771 mmHg 88%
    07:00 +12°C° 0 mm 1 mps 771 mmHg 81%
    08:00 +14°C° 0 mm 1 mps 771 mmHg 74%
    09:00 +16°C° 0 mm 2 mps 771 mmHg 68%
    10:00 +17°C° 0 mm 2 mps 771 mmHg 62%
    11:00 +19°C° 0 mm 3 mps 771 mmHg 57%
    12:00 +21°C° 0 mm 3 mps 771 mmHg 51%
    13:00 +20°C° 0 mm 3 mps 771 mmHg 53%
    14:00 +20°C° 0 mm 3 mps 770 mmHg 55%
    15:00 +20°C° 0 mm 4 mps 769 mmHg 56%
    16:00 +18°C° 0 mm 3 mps 769 mmHg 66%
    17:00 +16°C° 0 mm 3 mps 770 mmHg 77%
    18:00 +12°C° 0 mm 3 mps 770 mmHg 87%
    19:00 +12°C° 0 mm 3 mps 770 mmHg 86%
    20:00 +12°C° 0 mm 3 mps 770 mmHg 85%
    21:00 +12°C° 0 mm 3 mps 770 mmHg 85%
    22:00 +13°C° 0 mm 2 mps 770 mmHg 83%
    23:00 +13°C° 0 mm 2 mps 770 mmHg 81%

    24 February, Monday

    Time Temperature Precipitation Wind Pressure Humidity
    00:00 +13°C° 0 mm 2 mps 770 mmHg 80%
    01:00 +13°C° 0 mm 2 mps 769 mmHg 78%
    02:00 +12°C° 0 mm 2 mps 769 mmHg 77%
    03:00 +12°C° 0 mm 2 mps 769 mmHg 76%
    04:00 +12°C° 0 mm 2 mps 769 mmHg 74%
    05:00 +12°C° 0 mm 1 mps 769 mmHg 72%
    06:00 +12°C° 0 mm 1 mps 769 mmHg 70%
    07:00 +14°C° 0 mm 1 mps 769 mmHg 63%
    08:00 +16°C° 0 mm 1 mps 768 mmHg 57%
    09:00 +20°C° 0 mm 1 mps 768 mmHg 50%
    10:00 +20°C° 0 mm 2 mps 768 mmHg 45%
    11:00 +23°C° 0 mm 2 mps 768 mmHg 40%
    12:00 +24°C° 0 mm 3 mps 767 mmHg 34%
    13:00 +24°C° 0 mm 3 mps 767 mmHg 35%
    14:00 +23°C° 0 mm 4 mps 766 mmHg 35%
    15:00 +23°C° 0 mm 4 mps 766 mmHg 36%
    16:00 +21°C° 0 mm 4 mps 766 mmHg 44%
    17:00 +18°C° 0 mm 3 mps 765 mmHg 52%
    18:00 +14°C° 0 mm 3 mps 765 mmHg 61%
    19:00 +14°C° 0 mm 3 mps 766 mmHg 60%
    20:00 +13°C° 0 mm 3 mps 766 mmHg 59%
    21:00 +13°C° 0 mm 3 mps 766 mmHg 58%
    22:00 +13°C° 0 mm 3 mps 766 mmHg 57%
    23:00 +12°C° 0 mm 3 mps 765 mmHg 57%

    25 February, Tuesday

    Time Temperature Precipitation Wind Pressure Humidity
    00:00 +13°C° 0 mm 2 mps 765 mmHg 57%
    01:00 +13°C° 0 mm 2 mps 765 mmHg 58%
    02:00 +12°C° 0 mm 2 mps 765 mmHg 59%
    03:00 +12°C° 0 mm 1 mps 764 mmHg 60%
    04:00 +12°C° 0 mm 1 mps 764 mmHg 63%
    05:00 +12°C° 0 mm 1 mps 764 mmHg 65%
    06:00 +11°C° 0 mm 1 mps 764 mmHg 68%
    07:00 +13°C° 0 mm 1 mps 764 mmHg 64%
    08:00 +15°C° 0 mm 1 mps 764 mmHg 60%
    09:00 +16°C° 0 mm 0 mps 764 mmHg 56%
    10:00 +19°C° 0 mm 1 mps 763 mmHg 53%
    11:00 +20°C° 0 mm 1 mps 763 mmHg 50%
    12:00 +21°C° 0 mm 1 mps 763 mmHg 48%
    13:00 +21°C° 0 mm 1 mps 762 mmHg 50%
    14:00 +19°C° 0 mm 2 mps 762 mmHg 53%
    15:00 +19°C° 0 mm 2 mps 761 mmHg 56%
    16:00 +17°C° 0 mm 2 mps 761 mmHg 63%
    17:00 +15°C° 0 mm 1 mps 761 mmHg 71%
    18:00 +13°C° 0 mm 1 mps 761 mmHg 79%
    19:00 +13°C° 0 mm 1 mps 761 mmHg 79%
    20:00 +13°C° 0 mm 1 mps 761 mmHg 78%
    21:00 +13°C° 0 mm 1 mps 761 mmHg 78%
    22:00 +13°C° 0 mm 1 mps 761 mmHg 78%
    23:00 +12°C° 0 mm 0 mps 761 mmHg 77%
    Show more